CW5619 Weather Reports


time (UTC)temp
F
wind
direction
speed
knots
gust
knots
rain 1hr
in
rain 24hr
in
rain mn
in
humidity
%
barometer
mb
20260831144902 79 105 0.0 2.6 0.00 0.00 0.00 64 1016.4
20260831144403 79 105 0.0 7.0 0.00 0.00 0.00 62 1016.4
20260831143904 79 122 0.9 7.0 0.00 0.00 0.00 62 1016.2
20260831143403 79 112 2.6 10.4 0.00 0.00 0.00 62 1015.9
20260831142903 79 91 2.6 10.4 0.00 0.00 0.00 62 1015.7
20260831142403 79 69 2.6 10.4 0.00 0.00 0.00 62 1015.3
20260831141903 79 66 3.5 12.2 0.00 0.00 0.00 62 1015.3
20260831141403 78 77 4.3 12.2 0.00 0.00 0.00 64 1015.2
20260831140904 78 52 3.5 10.4 0.00 0.00 0.00 65 1015.3
20260831135903 78 44 5.2 13.0 0.00 0.00 0.00 67 1015.4
20260831135403 78 59 5.2 13.0 0.00 0.00 0.00 68 1015.5
20260831134903 78 41 3.5 11.3 0.00 0.00 0.00 69 1015.5
20260831133903 78 37 4.3 13.9 0.00 0.00 0.00 69 1015.5
20260831132903 79 53 6.1 14.8 0.00 0.00 0.00 69 1015.7
20260831132403 79 50 4.3 12.2 0.00 0.00 0.00 68 1016.1
20260831131903 79 48 3.5 8.7 0.00 0.00 0.00 69 1016.5
20260831130403 79 54 4.3 10.4 0.00 0.00 0.00 68 1016.9
20260831125903 79 80 0.9 8.7 0.00 0.00 0.00 68 1017.1
20260831125403 79 54 4.3 8.7 0.00 0.00 0.00 67 1016.5
20260831124903 79 58 3.5 7.8 0.00 0.00 0.00 66 1016.6
20260831124403 79 48 1.7 10.4 0.00 0.00 0.00 67 1016.5
20260831123903 79 43 4.3 11.3 0.00 0.00 0.00 66 1016.4
20260831123403 79 38 3.5 11.3 0.00 0.00 0.00 68 1016.3
20260831122404 79 37 2.6 10.4 0.00 0.00 0.00 67 1016.3
20260831121904 80 37 4.3 10.4 0.00 0.00 0.00 67 1016.5
20260831121404 80 26 4.3 10.4 0.00 0.00 0.00 66 1016.7
20260831120904 80 33 2.6 10.4 0.00 0.00 0.00 66 1017.0
20260831120403 80 32 3.5 10.4 0.00 0.00 0.00 66 1017.0
20260831115903 81 247 2.6 7.8 0.00 0.00 0.00 64 1016.7
20260831115403 81 199 2.6 7.0 0.00 0.00 0.00 63 1016.6
20260831114903 82 214 1.7 6.1 0.00 0.00 0.00 61 1016.5
20260831114403 82 221 1.7 10.4 0.00 0.00 0.00 60 1016.5
20260831113903 83 230 3.5 11.3 0.00 0.00 0.00 58 1016.5
20260831113403 83 243 4.3 12.2 0.00 0.00 0.00 57 1016.1
20260831112903 83 249 4.3 14.8 0.00 0.00 0.00 54 1015.9
20260831112403 84 258 7.8 15.6 0.00 0.00 0.00 53 1015.5
20260831111903 84 230 6.1 18.2 0.00 0.00 0.00 53 1015.1
20260831110903 85 224 7.0 18.2 0.00 0.00 0.00 51 1015.1
20260831110403 86 232 8.7 17.4 0.00 0.00 0.00 50 1015.1
20260831105903 86 233 2.6 7.8 0.00 0.00 0.00 46 1014.2
20260831105404 86 220 0.9 1.7 0.00 0.00 0.00 46 1013.8
20260831104903 86 247 0.0 0.9 0.00 0.00 0.00 46 1013.5
20260831104403 86 301 0.0 0.0 0.00 0.00 0.00 47 1013.2
20260831103903 86 301 0.0 0.0 0.00 0.00 0.00 47 1013.2
20260831102904 86 301 0.0 0.0 0.00 0.00 0.00 47 1013.4
20260831101903 86 301 0.0 0.0 0.00 0.00 0.00 48 1013.4
20260831100403 86 299 0.0 0.0 0.00 0.00 0.00 46 1013.2
20260831095903 86 299 0.0 0.0 0.00 0.00 0.00 46 1012.9
20260831095403 87 299 0.0 0.0 0.00 0.00 0.00 46 1012.9
20260831094903 87 299 0.0 0.9 0.00 0.00 0.00 46 1012.9
20260831094403 87 315 0.0 1.7 0.00 0.00 0.00 46 1013.0
20260831093903 87 323 0.0 1.7 0.00 0.00 0.00 46 1013.0
20260831093403 87 314 0.9 1.7 0.00 0.00 0.00 46 1013.0
20260831092903 87 41 0.0 1.7 0.00 0.00 0.00 46 1013.0
20260831091904 87 16 0.0 0.9 0.00 0.00 0.00 46 1013.1
20260831091403 87 16 0.0 0.9 0.00 0.00 0.00 46 1013.2
20260831090903 87 16 0.0 0.0 0.00 0.00 0.00 47 1013.2
20260831090403 87 16 0.0 2.6 0.00 0.00 0.00 46 1013.1
20260831085904 87 16 0.0 2.6 0.00 0.00 0.00 47 1013.2
20260831085403 87 55 0.9 2.6 0.00 0.00 0.00 47 1013.2
20260831084903 87 65 0.0 0.0 0.00 0.00 0.00 46 1013.2
20260831084403 87 65 0.0 0.0 0.00 0.00 0.00 46 1013.2
20260831083903 87 65 0.0 0.0 0.00 0.00 0.00 46 1013.2
20260831083403 87 65 0.0 0.9 0.00 0.00 0.00 46 1013.3
20260831081903 87 65 0.0 0.0 0.00 0.00 0.00 48 1013.3
20260831081403 87 65 0.0 0.0 0.00 0.00 0.00 48 1013.3
20260831080903 87 65 0.0 1.7 0.00 0.00 0.00 49 1013.3
20260831080403 87 65 0.0 1.7 0.00 0.00 0.00 48 1013.4
20260831075903 88 336 0.0 0.0 0.00 0.00 0.00 46 1013.2
20260831074903 88 336 0.0 0.9 0.00 0.00 0.00 46 1013.4
20260831074403 88 336 0.0 0.9 0.00 0.00 0.00 45 1013.3
20260831073903 88 286 0.0 0.0 0.00 0.00 0.00 42 1013.3
20260831073403 89 286 0.0 0.9 0.00 0.00 0.00 42 1013.4
20260831072903 89 286 0.0 0.9 0.00 0.00 0.00 42 1013.4
20260831071904 89 292 0.0 0.9 0.00 0.00 0.00 42 1013.3
20260831070903 89 292 0.0 0.9 0.00 0.00 0.00 42 1013.4
20260831070403 89 292 0.0 1.7 0.00 0.00 0.00 42 1013.5
20260831065904 89 292 0.0 1.7 0.00 0.00 0.00 42 1013.5
20260831065403 89 331 0.0 0.9 0.00 0.00 0.00 42 1013.6
20260831064903 89 334 0.0 0.9 0.00 0.00 0.00 42 1013.6
20260831064403 89 333 0.0 0.9 0.00 0.00 0.00 42 1013.6
20260831063903 89 333 0.0 0.9 0.00 0.00 0.00 42 1013.7
20260831063403 89 333 0.0 0.9 0.00 0.00 0.00 42 1013.7
20260831062903 89 333 0.0 0.9 0.00 0.00 0.00 42 1013.6
20260831062403 89 333 0.0 0.9 0.00 0.00 0.00 41 1013.7
20260831061903 89 355 0.0 0.9 0.00 0.00 0.00 41 1013.7
20260831061403 89 18 0.0 0.0 0.00 0.00 0.00 41 1013.7
20260831060904 89 18 0.0 0.0 0.00 0.00 0.00 41 1013.6
20260831060404 89 18 0.0 0.0 0.00 0.00 0.00 41 1013.6
20260831055903 89 18 0.0 0.9 0.00 0.00 0.00 40 1013.6
20260831055403 90 18 0.0 0.9 0.00 0.00 0.00 40 1013.5
20260831054404 90 298 0.0 0.9 0.00 0.00 0.00 39 1013.4
20260831053903 90 298 0.0 0.9 0.00 0.00 0.00 39 1013.3
20260831053403 90 298 0.0 1.7 0.00 0.00 0.00 39 1013.4
20260831052903 90 242 0.9 2.6 0.00 0.00 0.00 39 1013.4
20260831052403 90 227 0.0 2.6 0.00 0.00 0.00 39 1013.3
20260831051903 90 338 0.9 2.6 0.00 0.00 0.00 38 1013.4
20260831051403 90 326 0.9 2.6 0.00 0.00 0.00 38 1013.3
20260831050903 90 11 0.0 2.6 0.00 0.00 0.00 38 1013.2
20260831050403 91 323 0.0 2.6 0.00 0.00 0.00 38 1013.1
20260831045904 91 291 0.0 2.6 0.00 0.00 0.00 37 1013.2
20260831045404 91 351 0.9 2.6 0.00 0.00 0.00 37 1013.1
20260831044903 91 350 0.9 2.6 0.00 0.00 0.00 37 1013.2
20260831044403 91 341 0.9 2.6 0.00 0.00 0.00 37 1013.2
20260831043903 91 336 0.9 2.6 0.00 0.00 0.00 37 1013.3
20260831043403 91 305 0.9 2.6 0.00 0.00 0.00 37 1013.4
20260831042904 91 12 0.0 2.6 0.00 0.00 0.00 37 1013.3
20260831041904 91 295 1.7 2.6 0.00 0.00 0.00 36 1013.3
20260831041403 92 301 0.9 2.6 0.00 0.00 0.00 36 1013.1
20260831040903 92 259 0.9 2.6 0.00 0.00 0.00 36 1013.0
20260831035903 92 244 1.7 7.0 0.00 0.00 0.00 36 1013.0
20260831035404 92 216 1.7 7.0 0.00 0.00 0.00 36 1013.0
20260831034904 92 227 1.7 5.2 0.00 0.00 0.00 36 1012.9
20260831034403 92 224 2.6 5.2 0.00 0.00 0.00 36 1012.9
20260831033403 92 230 0.9 5.2 0.00 0.00 0.00 35 1012.7
20260831032903 92 223 1.7 5.2 0.00 0.00 0.00 34 1012.6
20260831032404 93 271 0.0 2.6 0.00 0.00 0.00 34 1012.6
20260831031903 93 213 0.9 4.3 0.00 0.00 0.00 34 1012.4
20260831031403 93 276 0.9 4.3 0.00 0.00 0.00 33 1012.4
20260831030903 93 238 0.9 5.2 0.00 0.00 0.00 33 1012.4
20260831030403 93 234 1.7 5.2 0.00 0.00 0.00 33 1012.3
20260831025903 93 243 0.9 8.7 0.00 0.00 0.00 34 1012.3
20260831025403 93 225 2.6 8.7 0.00 0.00 0.00 34 1012.2
20260831024904 94 252 2.6 7.8 0.00 0.00 0.00 34 1012.0
20260831024404 94 232 2.6 7.8 0.00 0.00 0.00 34 1011.8
20260831023903 94 239 3.5 10.4 0.00 0.00 0.00 34 1011.7
20260831023404 94 234 4.3 10.4 0.00 0.00 0.00 34 1011.7
20260831022403 95 230 2.6 7.8 0.00 0.00 0.00 34 1011.4
20260831021904 95 224 4.3 7.8 0.00 0.00 0.00 34 1011.1
20260831021403 95 229 3.5 7.0 0.00 0.00 0.00 34 1011.0
20260831020903 95 251 2.6 6.1 0.00 0.00 0.00 34 1010.8
20260831020403 95 229 2.6 5.2 0.00 0.00 0.00 33 1010.7
20260831015403 96 231 2.6 7.8 0.00 0.00 0.00 33 1010.6
20260831014904 96 237 3.5 7.8 0.00 0.00 0.00 32 1010.6
20260831014403 96 239 0.9 4.3 0.00 0.00 0.00 32 1010.5
20260831013403 96 237 1.7 2.6 0.00 0.00 0.00 32 1010.4
20260831012903 96 241 0.9 2.6 0.00 0.00 0.00 32 1010.4
20260831011903 96 277 0.9 5.2 0.00 0.00 0.00 31 1010.4
20260831011403 96 240 2.6 5.2 0.00 0.00 0.00 31 1010.4
20260831010903 96 229 2.6 5.2 0.00 0.00 0.00 31 1010.3
20260831005903 97 157 0.0 5.2 0.00 0.00 0.00 31 1010.3
20260831005404 97 298 0.9 5.2 0.00 0.00 0.00 31 1010.3
20260831003904 97 243 0.0 7.0 0.00 0.00 0.00 30 1010.3
20260831003403 97 19 0.9 7.0 0.00 0.00 0.00 29 1010.3
20260831002903 97 242 2.6 7.0 0.00 0.00 0.00 29 1010.3
20260831002404 98 243 0.9 6.1 0.00 0.00 0.00 29 1010.4
20260831001904 98 200 0.9 6.1 0.00 0.00 0.00 29 1010.4
20260831001403 98 229 0.9 6.1 0.00 0.00 0.00 29 1010.3
20260831000903 98 210 0.9 6.1 0.00 0.00 0.00 29 1010.5
20260831000403 98 256 0.0 6.1 0.00 0.00 0.00 28 1010.4
20260830235903 98 243 2.6 6.1 0.00 0.00 0.00 29 1010.4
20260830235403 98 237 2.6 6.1 0.00 0.00 0.00 29 1010.4
20260830234903 98 71 2.6 7.0 0.00 0.00 0.00 29 1010.4
20260830234403 98 224 2.6 7.0 0.00 0.00 0.00 29 1010.3
20260830233903 98 240 2.6 6.1 0.00 0.00 0.00 29 1010.4
20260830233404 98 46 1.7 5.2 0.00 0.00 0.00 28 1010.3
20260830232904 98 214 0.9 5.2 0.00 0.00 0.00 29 1010.5
20260830232403 98 251 1.7 5.2 0.00 0.00 0.00 29 1010.6
20260830231904 98 236 2.6 6.1 0.00 0.00 0.00 29 1010.6
20260830231403 98 238 0.9 6.1 0.00 0.00 0.00 28 1010.6
20260830230903 98 263 0.9 2.6 0.00 0.00 0.00 28 1010.7
20260830230403 99 316 0.9 5.2 0.00 0.00 0.00 29 1010.9
20260830225903 99 162 1.7 6.1 0.00 0.00 0.00 29 1011.0
20260830223404 99 11 0.9 7.0 0.00 0.00 0.00 28 1011.4
20260830222903 99 190 0.9 7.0 0.00 0.00 0.00 29 1011.5
20260830222403 99 298 1.7 7.0 0.00 0.00 0.00 29 1011.6
20260830221903 99 227 2.6 7.8 0.00 0.00 0.00 29 1011.6
20260830221403 99 318 2.6 7.8 0.00 0.00 0.00 29 1011.7
20260830220904 99 233 1.7 7.0 0.00 0.00 0.00 30 1011.7
20260830220404 99 293 2.6 7.0 0.00 0.00 0.00 30 1011.8
20260830215904 99 222 2.6 7.0 0.00 0.00 0.00 29 1012.0
20260830215403 99 172 1.7 7.0 0.00 0.00 0.00 29 1012.0
20260830214903 99 259 2.6 7.0 0.00 0.00 0.00 30 1012.1
20260830214403 99 299 0.9 7.0 0.00 0.00 0.00 30 1012.2
20260830213903 99 287 2.6 7.0 0.00 0.00 0.00 30 1012.3
20260830213403 98 282 1.7 7.0 0.00 0.00 0.00 30 1012.3
20260830212904 98 231 0.9 5.2 0.00 0.00 0.00 30 1012.4
20260830211904 98 8 1.7 7.8 0.00 0.00 0.00 30 1012.6
20260830211403 98 296 1.7 7.8 0.00 0.00 0.00 30 1012.6
20260830210903 98 47 1.7 4.3 0.00 0.00 0.00 30 1012.7
20260830210403 98 116 0.9 6.1 0.00 0.00 0.00 30 1012.8
20260830205904 98 66 1.7 6.1 0.00 0.00 0.00 30 1012.9
20260830204903 98 235 1.7 7.0 0.00 0.00 0.00 30 1013.0
20260830203903 98 236 4.3 7.0 0.00 0.00 0.00 30 1013.3
20260830203403 98 203 1.7 5.2 0.00 0.00 0.00 31 1013.5
20260830202903 98 259 0.9 4.3 0.00 0.00 0.00 31 1013.5
20260830202403 97 27 1.7 4.3 0.00 0.00 0.00 31 1013.5
20260830201904 98 49 0.9 4.3 0.00 0.00 0.00 31 1013.7
20260830201403 97 222 1.7 4.3 0.00 0.00 0.00 31 1013.7
20260830200904 97 48 1.7 4.3 0.00 0.00 0.00 31 1013.7
20260830200404 97 171 1.7 4.3 0.00 0.00 0.00 32 1013.7
20260830195903 97 200 0.9 7.8 0.00 0.00 0.00 31 1013.9
20260830194903 97 226 2.6 7.0 0.00 0.00 0.00 31 1014.0
20260830194403 97 213 1.7 4.3 0.00 0.00 0.00 31 1014.1
20260830193903 97 224 0.9 6.1 0.00 0.00 0.00 32 1014.1
20260830193403 97 37 2.6 6.1 0.00 0.00 0.00 32 1014.3
20260830192903 97 37 1.7 6.1 0.00 0.00 0.00 32 1014.3
20260830191903 97 241 1.7 5.2 0.00 0.00 0.00 33 1014.4
20260830191404 97 220 1.7 4.3 0.00 0.00 0.00 33 1014.5
20260830190904 96 296 1.7 5.2 0.00 0.00 0.00 33 1014.5
20260830190403 96 30 2.6 7.0 0.00 0.00 0.00 34 1014.6
20260830185903 96 251 3.5 7.8 0.00 0.00 0.00 34 1014.8
20260830185403 95 33 3.5 7.8 0.00 0.00 0.00 35 1014.9
20260830184903 95 329 0.9 7.0 0.00 0.00 0.00 34 1014.9
20260830183903 94 245 0.9 6.1 0.00 0.00 0.00 35 1015.0
20260830182904 94 239 1.7 6.1 0.00 0.00 0.00 35 1015.1
20260830182403 94 223 0.9 5.2 0.00 0.00 0.00 36 1015.3
20260830181903 94 212 1.7 5.2 0.00 0.00 0.00 35 1015.4
20260830181404 93 84 0.9 2.6 0.00 0.00 0.00 37 1015.3
20260830180903 93 111 0.9 2.6 0.00 0.00 0.00 36 1015.4
20260830180403 93 155 0.9 2.6 0.00 0.00 0.00 36 1015.4
20260830175903 93 131 0.9 4.3 0.00 0.00 0.00 37 1015.6
20260830175403 93 38 0.9 4.3 0.00 0.00 0.00 37 1015.6
20260830174903 93 75 1.7 6.1 0.00 0.00 0.00 37 1015.5
20260830174404 93 72 1.7 6.1 0.00 0.00 0.00 36 1015.6
20260830173903 93 74 1.7 6.1 0.00 0.00 0.00 37 1015.6
20260830173403 93 110 1.7 6.1 0.00 0.00 0.00 37 1015.7
20260830172903 93 81 1.7 4.3 0.00 0.00 0.00 37 1015.8
20260830171903 93 197 1.7 7.0 0.00 0.00 0.00 37 1015.8
20260830171403 92 65 0.9 2.6 0.00 0.00 0.00 38 1015.8
20260830170904 92 122 1.7 2.6 0.00 0.00 0.00 38 1015.9
20260830170403 92 235 0.9 4.3 0.00 0.00 0.00 38 1015.9
20260830165903 92 120 1.7 4.3 0.00 0.00 0.00 38 1015.9
20260830165404 92 156 0.9 5.2 0.00 0.00 0.00 38 1016.0
20260830164904 92 131 1.7 5.2 0.00 0.00 0.00 38 1016.0
20260830163903 91 114 0.9 6.1 0.00 0.00 0.00 39 1016.0
20260830163403 91 89 1.7 6.1 0.00 0.00 0.00 39 1016.0
20260830162904 91 177 1.7 6.1 0.00 0.00 0.00 39 1016.1
20260830162403 91 88 1.7 6.1 0.00 0.00 0.00 39 1016.1
20260830161904 91 183 1.7 6.1 0.00 0.00 0.00 39 1016.1
20260830161403 91 144 2.6 6.1 0.00 0.00 0.00 39 1016.1
20260830160903 91 196 1.7 6.1 0.00 0.00 0.00 39 1016.1
20260830160403 91 165 1.7 6.1 0.00 0.00 0.00 40 1016.1
20260830155903 91 85 1.7 6.1 0.00 0.00 0.00 40 1016.2
20260830155403 91 114 1.7 6.1 0.00 0.00 0.00 40 1016.1
20260830154903 91 192 1.7 5.2 0.00 0.00 0.00 40 1016.1
20260830154404 90 110 1.7 5.2 0.00 0.00 0.00 40 1016.0
20260830152903 90 135 1.7 6.1 0.00 0.00 0.00 42 1016.0
20260830152403 89 171 0.9 5.2 0.00 0.00 0.00 43 1016.0
20260830151903 89 106 2.6 5.2 0.00 0.00 0.00 43 1015.9
20260830150904 88 110 0.9 4.3 0.00 0.00 0.00 45 1016.1
20260830150403 87 179 1.7 5.2 0.00 0.00 0.00 45 1016.0
20260830145903 87 194 0.9 5.2 0.00 0.00 0.00 45 1016.1
20260830145403 86 183 0.9 4.3 0.00 0.00 0.00 46 1016.0